{"data":{"norad_id":63805,"intl_designator":"2025-092B","name":"STARLINK-34029","alt_names":[],"object_type":"PAYLOAD","status":"ACTIVE","operator":null,"country":"US","launch_date":"2025-05-04","launch_site_code":"AFETR","launch_vehicle":null,"mission":null,"orbit_class":"UNKNOWN","rcs_meters":null,"size_class":null,"mass_kg":null,"dimensions":null,"purposes":["comms"],"wikipedia_slug":null,"has_3d_model":false,"image_url":null,"decayed_at":null,"tle_current":{"epoch":"2026-05-25T03:31:14.524032Z","epoch_age_seconds":58407,"freshness":"FRESH","line1":"1 63805U 25092B   26145.14669588  .00012837  00000+0  47501-3 0  9995","line2":"2 63805  42.9992 101.1095 0000424 242.5013 117.5796 15.27593183 60302","mean_motion":15.27593183,"eccentricity":4.24e-5,"inclination_deg":42.9992,"raan_deg":101.1095,"arg_perigee_deg":242.5013,"mean_anomaly_deg":117.5796,"bstar":0.00047501,"rev_number":6030,"period_min":94.265935199581,"perigee_km":482.71870906222,"apogee_km":483.30053429574,"semimajor_km":6861.146621679,"source":"CELESTRAK","updated_at":"2026-05-25T13:38:20.139169Z"}}}